When you browse on this site, cookies collect data to enhance your experience and personalize the content and advertising you see.
Visit our Privacy Policy to learn more. By continuing to use the site, you agree to this use of cookies and data.
  • în România
  • Lista ţărilor
  • Pe 7 zile
  • Temperatura apei
  • Hartă satelitară
  • Meteo pe hartă
  • Widget-uri
  • user-avatar
    Intrare

    Meteo pe oră la Brooklyn Center

    Astăzi, 20 Februarie, Miercuri

    Timp Temperatura Precipitaţii Vânt Presiune Umiditate
    00:00 -13°C° 0 mm 2 m/s 742 mmHg 92%
    01:00 -13°C° 0 mm 3 m/s 741 mmHg 92%
    02:00 -12°C° 0 mm 3 m/s 741 mmHg 92%
    03:00 -12°C° 0 mm 3 m/s 740 mmHg 92%
    04:00 -11°C° 0.7 mm 4 m/s 739 mmHg 93%
    05:00 -10°C° 0.7 mm 4 m/s 738 mmHg 94%
    06:00 -10°C° 0.7 mm 4 m/s 737 mmHg 95%
    07:00 -10°C° 1.5 mm 5 m/s 736 mmHg 95%
    08:00 -10°C° 1.5 mm 5 m/s 735 mmHg 95%
    09:00 -10°C° 1.5 mm 5 m/s 734 mmHg 95%
    10:00 -8°C° 0.7 mm 5 m/s 733 mmHg 94%
    11:00 -7°C° 0.7 mm 5 m/s 732 mmHg 93%
    12:00 -6°C° 0.7 mm 5 m/s 730 mmHg 92%
    13:00 -6°C° 0.4 mm 5 m/s 730 mmHg 92%
    14:00 -4°C° 0.4 mm 4 m/s 729 mmHg 93%
    15:00 -4°C° 0.4 mm 3 m/s 728 mmHg 93%
    16:00 -3°C° 0.3 mm 2 m/s 728 mmHg 94%
    17:00 -1°C° 0.3 mm 1 m/s 728 mmHg 95%
    18:00 -3°C° 0.3 mm 0 m/s 728 mmHg 96%
    19:00 -2°C° 0.1 mm 1 m/s 729 mmHg 96%
    20:00 -2°C° 0.1 mm 1 m/s 729 mmHg 96%
    21:00 -3°C° 0.1 mm 1 m/s 730 mmHg 96%
    22:00 -5°C° 0 mm 2 m/s 731 mmHg 95%
    23:00 -6°C° 0 mm 3 m/s 732 mmHg 94%

    Mâine, 21 Februarie, Joi

    Timp Temperatura Precipitaţii Vânt Presiune Umiditate
    00:00 -8°C° 0 mm 4 m/s 732 mmHg 93%
    01:00 -9°C° 0 mm 4 m/s 733 mmHg 93%
    02:00 -9°C° 0 mm 4 m/s 734 mmHg 94%
    03:00 -10°C° 0 mm 4 m/s 735 mmHg 94%
    04:00 -12°C° 0 mm 4 m/s 735 mmHg 94%
    05:00 -14°C° 0 mm 4 m/s 736 mmHg 94%
    06:00 -15°C° 0 mm 3 m/s 737 mmHg 94%
    07:00 -15°C° 0 mm 3 m/s 738 mmHg 94%
    08:00 -15°C° 0 mm 3 m/s 739 mmHg 94%
    09:00 -14°C° 0 mm 3 m/s 740 mmHg 94%
    10:00 -13°C° 0 mm 3 m/s 740 mmHg 93%
    11:00 -12°C° 0 mm 3 m/s 741 mmHg 93%
    12:00 -10°C° 0 mm 3 m/s 741 mmHg 92%
    13:00 -9°C° 0 mm 3 m/s 742 mmHg 91%
    14:00 -9°C° 0 mm 3 m/s 742 mmHg 90%
    15:00 -8°C° 0 mm 3 m/s 742 mmHg 89%
    16:00 -10°C° 0 mm 3 m/s 742 mmHg 90%
    17:00 -10°C° 0 mm 2 m/s 743 mmHg 92%
    18:00 -10°C° 0 mm 1 m/s 743 mmHg 93%
    19:00 -13°C° 0 mm 2 m/s 743 mmHg 93%
    20:00 -14°C° 0 mm 2 m/s 744 mmHg 93%
    21:00 -14°C° 0 mm 2 m/s 744 mmHg 93%
    22:00 -14°C° 0 mm 2 m/s 745 mmHg 94%
    23:00 -11°C° 0 mm 1 m/s 745 mmHg 94%

    Poimâine, 22 Februarie, Vineri

    Timp Temperatura Precipitaţii Vânt Presiune Umiditate
    00:00 -11°C° 0 mm 1 m/s 745 mmHg 94%
    01:00 -10°C° 0.2 mm 1 m/s 745 mmHg 95%
    02:00 -10°C° 0.2 mm 0 m/s 746 mmHg 96%
    03:00 -9°C° 0.2 mm 0 m/s 746 mmHg 97%
    04:00 -10°C° 0.1 mm 0 m/s 745 mmHg 97%
    05:00 -10°C° 0.1 mm 1 m/s 745 mmHg 96%
    06:00 -10°C° 0.1 mm 1 m/s 745 mmHg 96%
    07:00 -9°C° 0 mm 1 m/s 745 mmHg 96%
    08:00 -9°C° 0 mm 2 m/s 745 mmHg 95%
    09:00 -8°C° 0 mm 2 m/s 745 mmHg 95%
    10:00 -8°C° 0 mm 3 m/s 745 mmHg 93%
    11:00 -7°C° 0 mm 3 m/s 745 mmHg 92%
    12:00 -5°C° 0 mm 3 m/s 744 mmHg 90%
    13:00 -5°C° 0 mm 3 m/s 743 mmHg 90%
    14:00 -5°C° 0 mm 3 m/s 743 mmHg 89%
    15:00 -4°C° 0 mm 3 m/s 742 mmHg 89%
    16:00 -4°C° 0.1 mm 3 m/s 742 mmHg 90%
    17:00 -4°C° 0.1 mm 3 m/s 741 mmHg 91%
    18:00 -4°C° 0.1 mm 3 m/s 741 mmHg 91%
    19:00 -4°C° 1 mm 3 m/s 740 mmHg 93%
    20:00 -4°C° 1 mm 3 m/s 740 mmHg 94%
    21:00 -4°C° 1 mm 3 m/s 740 mmHg 96%
    22:00 -4°C° 0.3 mm 3 m/s 739 mmHg 96%
    23:00 -4°C° 0.3 mm 3 m/s 739 mmHg 96%

    23 Februarie, Sâmbătă

    Timp Temperatura Precipitaţii Vânt Presiune Umiditate
    00:00 -4°C° 0.3 mm 3 m/s 738 mmHg 96%
    01:00 -3°C° 0.1 mm 2 m/s 738 mmHg 96%
    02:00 -3°C° 0.1 mm 2 m/s 737 mmHg 97%
    03:00 -3°C° 0.1 mm 2 m/s 737 mmHg 97%
    04:00 -3°C° 0.1 mm 2 m/s 736 mmHg 97%
    05:00 -4°C° 0.1 mm 2 m/s 736 mmHg 97%
    06:00 -4°C° 0.1 mm 2 m/s 736 mmHg 97%
    07:00 -3°C° 0.1 mm 2 m/s 735 mmHg 97%
    08:00 -3°C° 0.1 mm 2 m/s 735 mmHg 97%
    09:00 -2°C° 0.1 mm 2 m/s 735 mmHg 97%
    10:00 -2°C° 0.3 mm 2 m/s 734 mmHg 97%
    11:00 -2°C° 0.3 mm 3 m/s 733 mmHg 97%
    12:00 -1°C° 0.3 mm 3 m/s 733 mmHg 97%
    13:00 -1°C° 0.6 mm 3 m/s 732 mmHg 97%
    14:00 -2°C° 0.6 mm 4 m/s 731 mmHg 97%
    15:00 -2°C° 0.6 mm 4 m/s 730 mmHg 97%
    16:00 -2°C° 0.6 mm 5 m/s 729 mmHg 96%
    17:00 -2°C° 0.6 mm 5 m/s 729 mmHg 95%
    18:00 -3°C° 0.6 mm 6 m/s 728 mmHg 94%
    19:00 -3°C° 1 mm 6 m/s 727 mmHg 93%
    20:00 -4°C° 1 mm 7 m/s 727 mmHg 93%
    21:00 -4°C° 1 mm 7 m/s 726 mmHg 93%
    22:00 -4°C° 1.1 mm 7 m/s 726 mmHg 93%
    23:00 -4°C° 1.1 mm 7 m/s 726 mmHg 93%

    24 Februarie, Duminică

    Timp Temperatura Precipitaţii Vânt Presiune Umiditate
    00:00 -4°C° 1.1 mm 7 m/s 727 mmHg 93%
    01:00 -4°C° 0.4 mm 7 m/s 727 mmHg 92%
    02:00 -4°C° 0.4 mm 7 m/s 727 mmHg 91%
    03:00 -4°C° 0.4 mm 7 m/s 728 mmHg 89%
    04:00 -6°C° 0.4 mm 7 m/s 729 mmHg 89%
    05:00 -6°C° 0.4 mm 7 m/s 730 mmHg 89%
    06:00 -7°C° 0.4 mm 7 m/s 731 mmHg 88%
    07:00 -8°C° 0.2 mm 7 m/s 732 mmHg 88%
    08:00 -8°C° 0.2 mm 7 m/s 733 mmHg 88%
    09:00 -9°C° 0.2 mm 7 m/s 734 mmHg 88%
    10:00 -9°C° 0.1 mm 7 m/s 735 mmHg 88%
    11:00 -9°C° 0.1 mm 7 m/s 735 mmHg 87%
    12:00 -9°C° 0.1 mm 7 m/s 736 mmHg 87%
    13:00 -9°C° 0 mm 7 m/s 737 mmHg 86%
    14:00 -9°C° 0 mm 7 m/s 738 mmHg 85%
    15:00 -9°C° 0 mm 7 m/s 739 mmHg 84%
    16:00 -12°C° 0 mm 7 m/s 739 mmHg 85%
    17:00 -12°C° 0 mm 6 m/s 740 mmHg 85%
    18:00 -14°C° 0 mm 6 m/s 741 mmHg 85%
    19:00 -15°C° 0 mm 6 m/s 742 mmHg 86%
    20:00 -17°C° 0 mm 5 m/s 743 mmHg 86%
    21:00 -18°C° 0 mm 5 m/s 744 mmHg 86%
    22:00 -20°C° 0 mm 5 m/s 745 mmHg 87%
    23:00 -20°C° 0 mm 4 m/s 746 mmHg 88%

    25 Februarie, Luni

    Timp Temperatura Precipitaţii Vânt Presiune Umiditate
    00:00 -23°C° 0 mm 4 m/s 746 mmHg 90%
    01:00 -25°C° 0 mm 4 m/s 747 mmHg 91%
    02:00 -25°C° 0 mm 3 m/s 748 mmHg 92%
    03:00 -26°C° 0 mm 3 m/s 748 mmHg 93%
    04:00 -26°C° 0 mm 2 m/s 749 mmHg 93%
    05:00 -27°C° 0 mm 2 m/s 749 mmHg 94%
    06:00 -29°C° 0 mm 2 m/s 750 mmHg 94%
    07:00 -28°C° 0 mm 2 m/s 750 mmHg 94%
    08:00 -24°C° 0 mm 1 m/s 751 mmHg 93%
    09:00 -23°C° 0 mm 1 m/s 752 mmHg 93%
    10:00 -20°C° 0 mm 1 m/s 751 mmHg 90%
    11:00 -18°C° 0 mm 0 m/s 751 mmHg 87%
    12:00 -16°C° 0 mm 0 m/s 751 mmHg 85%
    13:00 -15°C° 0 mm 0 m/s 751 mmHg 82%
    14:00 -14°C° 0 mm 1 m/s 750 mmHg 80%
    15:00 -13°C° 0 mm 1 m/s 749 mmHg 78%
    16:00 -14°C° 0 mm 1 m/s 749 mmHg 82%
    17:00 -14°C° 0 mm 1 m/s 748 mmHg 86%
    18:00 -15°C° 0 mm 1 m/s 748 mmHg 90%
    19:00 -16°C° 0.1 mm 2 m/s 747 mmHg 92%
    20:00 -16°C° 0.1 mm 2 m/s 747 mmHg 93%
    21:00 -16°C° 0.1 mm 2 m/s 747 mmHg 95%
    22:00 -16°C° 0.8 mm 2 m/s 746 mmHg 95%
    23:00 -16°C° 0.8 mm 3 m/s 745 mmHg 96%
    Arată mai mult